Location: Wildlife_Club
(35.6000°N, 81.4330°W)
Time: 05:58:17
(UTC-04:00)

Courier 1B Rocket - Pass Details

Date: 22 June 2019
Orbit: 920 x 1202 km, 28.3° (Epoch: 16 August)

Event Time Altitude Azimuth Distance (km) Brightness Sun altitude
Exits shadow 05:06:26 14° 218° (SW) 2,599 6.6 -11.5°
Maximum altitude 05:11:26 31° 164° (SSE) 1,714 6.1 -10.7°
Drops below altitude 10° 05:17:05 10° 104° (ESE) 2,719 7.9 -9.8°
Sets 05:19:58 0° 94° (E) 3,631 8.8 -9.4°
